PROFILE

 METAR AND TAF INFORMATION
ADDS - METARS form results

(0355 UTC 25 April 2019)
http://aviationweather.gov/metar/data/
 
MDPC 250300Z 07005KT 9999 FEW018 24/19 Q1016 NOSIG
TAF MDPC 242200Z 2500/2600 07008KT 9999 FEW020 BECMG 2506/2508 00000KT 

 AIRPORT MAP

 RUNWAY INFORMATION
Runway 08 Runway length 10171 ft Runway width 148 ft
Runway elevation 43 ft Runway displaced threshold 0 ft Runway heading 74
Runway 26 Runway length 10171 ft Runway width 148 ft
Runway elevation 37 ft Runway displaced threshold 0 ft Runway heading 254
Runway 09 Runway length 10171 ft Runway width 148 ft
Runway elevation 47 ft Runway displaced threshold 0 ft Runway heading 83
Runway 27 Runway length 10171 ft Runway width 148 ft
Runway elevation 36 ft Runway displaced threshold 0 ft Runway heading 263

 AIRPORT FREQUENCIES
Type A/D Name APP Frequency 119.7 MHZ
Type APP Name LAS AMERIC Frequency 119.3 MHZ
Type ATIS Name Frequency 132.85 MHZ
Type DLV Name DELIVERY Frequency 121.65 MHZ
Type GND Name GROUND Frequency 121.9 MHZ
Type TWR Name TWR Frequency 118.8 MHZ

 AIRPORT NEAR NAVIGATION AIDS
Type NDB Name Punta Cana Frequency 425 KHZ
Type VOR-DME Name Punta Cana Frequency 112700 KHZ